Fremont, MI

4:02 AM EDT on August 24, 2019 (GMT -0400)
Fremont

Weather History for KFFX - May, 2019

Change the Weather History Date:

Wednesday, May 22, 2019

  Actual Average (KMKG) Record (KMKG)
Temperature  
Mean Temperature 62 °F -  
Max Temperature 75 °F 70 °F 88 °F (1977)
Min Temperature 48 °F 46 °F 34 °F (1971)
Degree Days  
Heating Degree Days 4    
Growing Degree Days 12 (Base 50)    
Moisture  
Dew Point 48 °F    
Average Humidity 64    
Maximum Humidity 88    
Minimum Humidity 41    
Precipitation  
Precipitation 0.00 in - - ()
Sea Level Pressure  
Sea Level Pressure 29.93 in    
Wind  
Wind Speed 10 mph ()    
Max Wind Speed 16 mph    
Max Gust Speed 29 mph    
Visibility 9.9 miles    
Events Rain    
Averages and records for this station are not official NWS values.
T = Trace of Precipitation, MM = Missing Value Source: Averaged Metar Reports

Daily Weather History Graph

Daily Weather History Graph

Search for Another Location

Airport or City:

Astronomy

May. 22, 2019 Rise Set
Actual Time 6:13 AM EDT 9:08 PM EDT
Civil Twilight 5:39 AM EDT 9:42 PM EDT
Nautical Twilight 4:56 AM EDT 10:25 PM EDT
Astronomical Twilight 4:06 AM EDT 11:16 PM EDT
Moon 12:04 AM EDT (5/22) 9:19 AM EDT (5/22)
Length of Visible Light 16h 03m
Length of Day
14h 55m
Waning Gibbous, 85% of the Moon is Illuminated
May 22
Waning Gibbous
May 26
Last Quarter
Jun 3
New
Jun 10
First Quarter
Jun 17
Full

Hourly Weather History & Observations

Time (EDT) Temp. Dew Point Humidity Pressure Visibility Wind Dir Wind Speed Gust Speed Precip Events Conditions
12:15 AM 56.3 °F 34.5 °F 44% 30.04 in 10.0 mi East 13.8 mph 19.6 mph N/A   Overcast
12:16 AM 56.3 °F 34.3 °F 44% 30.04 in 10.0 mi East 10.4 mph 19.6 mph N/A   Overcast
12:35 AM 56.3 °F 34.0 °F 43% 30.03 in 10.0 mi ESE 12.7 mph 21.9 mph N/A   Mostly Cloudy
12:36 AM 56.3 °F 33.8 °F 43% 30.03 in 10.0 mi ESE 11.5 mph 21.9 mph N/A   Mostly Cloudy
12:55 AM 56.3 °F 33.8 °F 43% 30.03 in 10.0 mi ESE 11.5 mph 21.9 mph N/A   Mostly Cloudy
1:15 AM 55.9 °F 33.4 °F 43% 30.02 in 10.0 mi East 11.5 mph 20.7 mph N/A   Mostly Cloudy
1:16 AM 55.9 °F 33.4 °F 43% 30.02 in 10.0 mi East 11.5 mph 20.7 mph N/A   Mostly Cloudy
1:35 AM 55.8 °F 32.9 °F 42% 30.00 in 10.0 mi East 11.5 mph 21.9 mph N/A   Scattered Clouds
1:36 AM 55.8 °F 32.9 °F 42% 30.01 in 10.0 mi ESE 10.4 mph 20.7 mph N/A   Scattered Clouds
1:55 AM 55.8 °F 32.2 °F 41% 30.00 in 10.0 mi ESE 12.7 mph 21.9 mph N/A   Mostly Cloudy
2:15 AM 55.6 °F 32.2 °F 41% 30.00 in 10.0 mi ESE 12.7 mph 21.9 mph N/A   Mostly Cloudy
2:35 AM 55.4 °F 32.2 °F 41% 29.99 in 10.0 mi ESE 13.8 mph 19.6 mph N/A   Mostly Cloudy
2:55 AM 54.9 °F 33.1 °F 44% 30.01 in 10.0 mi East 11.5 mph 17.3 mph N/A   Overcast
2:56 AM 54.9 °F 33.1 °F 44% 30.01 in 10.0 mi ESE 11.5 mph 17.3 mph N/A   Overcast
3:15 AM 54.9 °F 33.3 °F 44% 30.01 in 10.0 mi ESE 9.2 mph 19.6 mph N/A   Overcast
3:35 AM 51.3 °F 38.8 °F 63% 30.00 in 10.0 mi ESE 12.7 mph 19.6 mph N/A Rain Light Rain
3:55 AM 50.9 °F 39.6 °F 65% 30.00 in 10.0 mi ESE 13.8 mph 18.4 mph N/A   Mostly Cloudy
3:56 AM 50.9 °F 39.6 °F 65% 30.00 in 10.0 mi ESE 13.8 mph 19.6 mph N/A   Mostly Cloudy
4:15 AM 51.1 °F 39.4 °F 64% 29.97 in 10.0 mi ESE 13.8 mph 23.0 mph N/A   Mostly Cloudy
4:16 AM 51.1 °F 39.4 °F 64% 29.97 in 10.0 mi ESE 15.0 mph 23.0 mph N/A   Mostly Cloudy
4:35 AM 50.5 °F 39.4 °F 66% 29.95 in 10.0 mi ESE 13.8 mph 23.0 mph N/A   Scattered Clouds
4:55 AM 50.5 °F 39.6 °F 66% 29.95 in 10.0 mi East 12.7 mph 25.3 mph N/A   Overcast
5:15 AM 50.5 °F 40.3 °F 68% 30.04 in 10.0 mi WSW 10.4 mph 23.0 mph N/A   Overcast
5:35 AM 49.5 °F 42.1 °F 76% 30.00 in 7.0 mi ENE 5.8 mph - N/A Rain Rain
5:55 AM 49.1 °F 42.6 °F 78% 29.98 in 10.0 mi East 6.9 mph - N/A Rain Rain
5:56 AM 49.1 °F 42.4 °F 78% 29.98 in 10.0 mi East 5.8 mph - N/A Rain Rain
6:15 AM 49.3 °F 42.4 °F 77% 29.97 in 10.0 mi East 6.9 mph - N/A Rain Light Rain
6:16 AM 49.5 °F 42.4 °F 77% 29.97 in 10.0 mi ESE 6.9 mph - N/A Rain Light Rain
6:35 AM 49.6 °F 42.4 °F 76% 29.98 in 10.0 mi ESE 9.2 mph - N/A Rain Light Rain
6:55 AM 49.6 °F 42.6 °F 77% 29.98 in 10.0 mi ESE 8.1 mph - N/A Rain Light Rain
6:56 AM 49.6 °F 42.6 °F 77% 29.98 in 10.0 mi East 6.9 mph - N/A Rain Light Rain
7:15 AM 50.0 °F 43.0 °F 77% 30.00 in 10.0 mi ESE 6.9 mph - N/A Rain Light Rain
7:16 AM 50.0 °F 43.0 °F 77% 30.00 in 10.0 mi ESE 8.1 mph - N/A Rain Light Rain
7:35 AM 49.3 °F 43.7 °F 81% 29.97 in 7.0 mi ESE 15.0 mph 20.7 mph N/A Rain Rain
7:55 AM 48.6 °F 44.8 °F 87% 29.90 in 7.0 mi East 11.5 mph 28.8 mph N/A Rain Rain
8:15 AM 49.1 °F 45.5 °F 87% 29.88 in 10.0 mi ESE 16.1 mph 28.8 mph N/A Rain Light Rain
8:35 AM 50.4 °F 45.5 °F 83% 29.96 in 10.0 mi SSW 6.9 mph 16.1 mph N/A   Mostly Cloudy
8:36 AM 50.4 °F 45.3 °F 83% 29.97 in 10.0 mi SSW 6.9 mph 16.1 mph N/A   Mostly Cloudy
8:55 AM 50.2 °F 45.3 °F 83% 29.97 in 10.0 mi SE 8.1 mph - N/A   Overcast
8:56 AM 50.2 °F 45.1 °F 83% 29.97 in 10.0 mi SE 9.2 mph - N/A   Overcast
9:15 AM 50.7 °F 45.7 °F 83% 29.96 in 10.0 mi ESE 9.2 mph - N/A   Overcast
9:35 AM 51.1 °F 46.2 °F 83% 29.97 in 10.0 mi SE 9.2 mph - N/A   Overcast
9:36 AM 51.1 °F 46.4 °F 84% 29.97 in 10.0 mi SE 8.1 mph - N/A   Overcast
9:55 AM 51.8 °F 46.4 °F 82% 29.96 in 10.0 mi ESE 16.1 mph - N/A   Overcast
9:56 AM 51.8 °F 46.2 °F 81% 29.96 in 10.0 mi ESE 15.0 mph 18.4 mph N/A   Overcast
10:15 AM 52.9 °F 46.6 °F 79% 29.95 in 10.0 mi ESE 13.8 mph 23.0 mph N/A   Overcast
10:35 AM 54.1 °F 47.3 °F 78% 29.94 in 10.0 mi SE 13.8 mph 18.4 mph N/A   Overcast
10:55 AM 55.6 °F 47.7 °F 75% 29.94 in 10.0 mi SE 12.7 mph 19.6 mph N/A   Overcast
10:56 AM 55.6 °F 47.5 °F 74% 29.94 in 10.0 mi SE 12.7 mph 19.6 mph N/A   Overcast
11:15 AM 55.6 °F 48.4 °F 77% 29.94 in 10.0 mi SE 11.5 mph 17.3 mph N/A   Overcast
11:16 AM 55.8 °F 48.4 °F 76% 29.94 in 10.0 mi SE 11.5 mph 17.3 mph N/A   Overcast
11:35 AM 56.5 °F 49.1 °F 76% 29.93 in 10.0 mi SSE 8.1 mph 17.3 mph N/A   Overcast
11:55 AM 57.2 °F 49.6 °F 76% 29.93 in 10.0 mi SE 11.5 mph 18.4 mph N/A   Overcast
12:15 PM 58.1 °F 50.7 °F 76% 29.94 in 10.0 mi SE 10.4 mph 16.1 mph N/A   Overcast
12:16 PM 58.1 °F 50.5 °F 76% 29.93 in 10.0 mi SE 11.5 mph - N/A   Overcast
12:35 PM 58.3 °F 50.9 °F 76% 29.93 in 10.0 mi SE 10.4 mph - N/A   Overcast
12:55 PM 59.0 °F 51.6 °F 76% 29.93 in 10.0 mi SSE 10.4 mph - N/A   Overcast
1:15 PM 59.4 °F 52.0 °F 77% 29.93 in 10.0 mi SSE 5.8 mph - N/A   Overcast
1:35 PM 61.0 °F 52.9 °F 75% 29.93 in 10.0 mi SE 6.9 mph - N/A   Overcast
1:36 PM 61.2 °F 53.1 °F 75% 29.93 in 10.0 mi SE 9.2 mph - N/A   Overcast
1:55 PM 63.5 °F 53.8 °F 71% 29.93 in 10.0 mi ESE 12.7 mph 16.1 mph N/A   Overcast
2:15 PM 64.0 °F 53.8 °F 69% 29.92 in 10.0 mi SE 11.5 mph - N/A   Overcast
2:35 PM 66.4 °F 54.3 °F 65% 29.91 in 10.0 mi South 10.4 mph 16.1 mph N/A   Mostly Cloudy
2:36 PM 66.4 °F 54.1 °F 65% 29.91 in 10.0 mi South 9.2 mph 16.1 mph N/A   Mostly Cloudy
2:55 PM 68.5 °F 54.5 °F 61% 29.90 in 10.0 mi SSE 6.9 mph - N/A   Clear
2:56 PM 68.7 °F 54.5 °F 60% 29.90 in 10.0 mi SSE 9.2 mph - N/A   Clear
3:15 PM 69.6 °F 53.8 °F 57% 29.90 in 10.0 mi SSE 11.5 mph 17.3 mph N/A   Clear
3:35 PM 70.0 °F 54.0 °F 57% 29.90 in 10.0 mi SSE 10.4 mph 18.4 mph N/A   Clear
3:36 PM 70.0 °F 54.0 °F 57% 29.90 in 10.0 mi SSE 12.7 mph 18.4 mph N/A   Clear
3:55 PM 71.4 °F 54.3 °F 55% 29.89 in 10.0 mi South 10.4 mph 18.4 mph N/A   Clear
3:56 PM 71.4 °F 54.1 °F 54% 29.89 in 10.0 mi SSE 8.1 mph 18.4 mph N/A   Clear
4:15 PM 71.4 °F 54.1 °F 54% 29.89 in 10.0 mi SSE 9.2 mph 16.1 mph N/A   Clear
4:35 PM 72.5 °F 53.4 °F 51% 29.89 in 10.0 mi South 11.5 mph 17.3 mph N/A   Clear
4:55 PM 72.5 °F 53.4 °F 51% 29.88 in 10.0 mi SSE 10.4 mph 18.4 mph N/A   Clear
4:56 PM 72.7 °F 53.6 °F 51% 29.88 in 10.0 mi SSE 12.7 mph 18.4 mph N/A   Clear
5:15 PM 73.4 °F 54.0 °F 50% 29.88 in 10.0 mi South 9.2 mph 16.1 mph N/A   Clear
5:35 PM 73.6 °F 54.0 °F 50% 29.88 in 10.0 mi SSE 11.5 mph 16.1 mph N/A   Clear
5:55 PM 73.6 °F 53.8 °F 50% 29.85 in 10.0 mi South 13.8 mph 19.6 mph N/A   Clear
5:56 PM 73.6 °F 53.8 °F 50% 29.85 in 10.0 mi SSE 11.5 mph 19.6 mph N/A   Clear
6:15 PM 74.1 °F 53.8 °F 49% 29.86 in 10.0 mi SSE 13.8 mph 24.2 mph N/A   Clear
6:16 PM 74.1 °F 53.8 °F 49% 29.86 in 10.0 mi SSE 12.7 mph 24.2 mph N/A   Clear
6:35 PM 74.3 °F 54.7 °F 50% 29.85 in 10.0 mi South 13.8 mph 17.3 mph N/A   Clear
6:36 PM 74.3 °F 54.7 °F 50% 29.85 in 10.0 mi South 10.4 mph 17.3 mph N/A   Clear
6:55 PM 75.2 °F 54.9 °F 49% 29.85 in 10.0 mi South 11.5 mph - N/A   Clear
7:15 PM 75.2 °F 54.7 °F 49% 29.85 in 10.0 mi South 12.7 mph 19.6 mph N/A   Clear
7:16 PM 75.2 °F 54.7 °F 49% 29.85 in 10.0 mi South 11.5 mph 19.6 mph N/A   Clear
7:35 PM 75.2 °F 55.2 °F 50% 29.85 in 10.0 mi South 8.1 mph - N/A   Clear
7:36 PM 75.2 °F 55.4 °F 50% 29.85 in 10.0 mi South 8.1 mph - N/A   Clear
7:55 PM 74.5 °F 56.1 °F 53% 29.85 in 10.0 mi SSE 9.2 mph - N/A   Clear
8:15 PM 74.3 °F 55.6 °F 52% 29.85 in 10.0 mi South 8.1 mph - N/A   Clear
8:16 PM 74.3 °F 55.6 °F 52% 29.85 in 10.0 mi South 6.9 mph - N/A   Clear
8:35 PM 73.0 °F 55.8 °F 55% 29.86 in 10.0 mi South 8.1 mph 16.1 mph N/A   Clear
8:36 PM 73.0 °F 55.8 °F 55% 29.86 in 10.0 mi South 8.1 mph 16.1 mph N/A   Clear
8:55 PM 72.1 °F 55.9 °F 57% 29.86 in 10.0 mi South 5.8 mph - N/A   Clear
8:56 PM 72.1 °F 55.9 °F 57% 29.86 in 10.0 mi SSE 5.8 mph - N/A   Clear
9:15 PM 71.4 °F 56.3 °F 59% 29.85 in 10.0 mi South 5.8 mph - N/A   Clear
9:35 PM 71.1 °F 56.5 °F 60% 29.85 in 10.0 mi South 6.9 mph - N/A   Clear
9:55 PM 70.7 °F 57.2 °F 62% 29.85 in 10.0 mi SSE 5.8 mph - N/A   Clear
9:56 PM 70.7 °F 57.2 °F 62% 29.85 in 10.0 mi SSE 5.8 mph - N/A   Clear
10:15 PM 70.7 °F 57.2 °F 62% 29.86 in 10.0 mi South 5.8 mph - N/A   Scattered Clouds
10:35 PM 70.2 °F 57.6 °F 64% 29.89 in 10.0 mi SW 4.6 mph - N/A Rain Light Rain
10:55 PM 68.4 °F 59.4 °F 73% 29.91 in 10.0 mi Calm Calm - N/A Rain Rain
11:15 PM 66.6 °F 60.4 °F 81% 29.90 in 7.0 mi SE 3.5 mph - N/A Rain Light Rain
11:35 PM 65.8 °F 61.2 °F 85% 29.89 in 10.0 mi ESE 3.5 mph - N/A   Mostly Cloudy
11:55 PM 65.7 °F 61.9 °F 88% 29.89 in 10.0 mi SE 5.8 mph - N/A Rain Rain
11:56 PM 65.8 °F 61.7 °F 86% 29.89 in 10.0 mi SE 5.8 mph - N/A Rain Rain